PRAETORIAN SDA_608

Last updated on Sun Jun 21 2026 00:03:46 GMT+0000 (Coordinated Universal Time)

1 65571U 25203G 26171.47425272 .00000051 00000+0 35115-4 0 9990 2 65571 81.3006 7.7639 0005940 181.5836 178.5303 13.83817196 39147
UTC large
Height (km)
Speed (km/s)
/
Latitude / Longitude
Inclination (degrees)
Orbital Period (minutes)
Azimuth
Elevation
Range (km)
Doppler Factor

Next 0 passes for location: London (51.5072 / 0.1276)

No passes found over London.
PRAETORIAN SDA_608